User: anonymous   Login
Location: ??????
(38.3184°N, 23.6932°E)
Time: 03:25:37
(UTC+00:00)
Language:

Landsat 5 - Orbit

View from above orbital plane
View from above orbital plane
View from above satellite
View from above satellite

Ground track
Ground track

The orbit data is extracted from the following two-line orbital elements,

1 14780U 84021A   22021.53266458  .00000801  00000-0  78280-4 0  9999
2 14780  98.2053 213.1627 0090275  50.5550 310.3613 14.92540114550732
Epoch (UTC): 21 January 2022 12:47:02
Eccentricity: 0.0090275
inclination: 98.2053°
perigee height: 527 km
apogee height: 653 km
right ascension of ascending node: 213.1627°
argument of perigee: 50.5550°
revolutions per day: 14.92540114
mean anomaly at epoch: 310.3613°
orbit number at epoch: 55073

The dashed part of the orbit path shows where the satellite is in the earth's shadow,  

DLR